Valley City, ND

10:17 AM CDT on July 28, 2017 (GMT -0500)
Valley City

Weather History for KBAC - May, 2014

Change the Weather History Date:

Friday, May 9, 2014

  Actual Average (KJMS) Record (KJMS)
Temperature  
Mean Temperature 48 °F -  
Max Temperature 59 °F 68 °F 91 °F (1992)
Min Temperature 37 °F 40 °F 18 °F (1945)
Degree Days  
Heating Degree Days 17    
Moisture  
Dew Point 33 °F    
Average Humidity 65    
Maximum Humidity 100    
Minimum Humidity 25    
Precipitation  
Precipitation 0.00 in - - ()
Sea Level Pressure  
Sea Level Pressure 29.72 in    
Wind  
Wind Speed 14 mph (NW)    
Max Wind Speed 21 mph    
Max Gust Speed 25 mph    
Visibility 10 miles    
Events Rain    
Averages and records for this station are not official NWS values.
T = Trace of Precipitation, MM = Missing Value Source: NWS Daily Summary

Daily Weather History Graph

Daily Weather History Graph

Search for Another Location

Airport or City:

Trip Planner

Search our weather history database for the weather conditions in past years. The results will help you decide how hot, cold, wet, or windy it might be!

Date:

Astronomy

May. 09, 2014 Rise Set
Actual Time 6:04 AM CDT 8:53 PM CDT
Civil Twilight 5:29 AM CDT 9:28 PM CDT
Nautical Twilight 4:45 AM CDT 10:13 PM CDT
Astronomical Twilight 3:52 AM CDT 11:06 PM CDT
Moon 3:32 PM CDT (5/9) 3:28 AM CDT (5/9)
Length of Visible Light 15h 58m
Length of Day
14h 48m
Waxing Gibbous, 74% of the Moon is Illuminated
May 9
Waxing Gibbous
May 14
Full
May 21
Last Quarter
May 28
New
Jun 5
First Quarter

Hourly Weather History & Observations

Time (CDT) Temp. Windchill Dew Point Humidity Pressure Visibility Wind Dir Wind Speed Gust Speed Precip Events Conditions
12:15 AM 42.8 °F 34.5 °F 42.8 °F 100% 29.71 in 10.0 mi North 18.4 mph 21.9 mph N/A Rain Light Rain
12:35 AM 42.8 °F 35.8 °F 42.8 °F 100% 29.71 in 10.0 mi North 13.8 mph 23.0 mph N/A   Overcast
12:55 AM 42.8 °F 35.4 °F 42.8 °F 100% 29.71 in 10.0 mi North 15.0 mph 20.7 mph N/A Rain Light Rain
1:15 AM 42.8 °F 34.8 °F 42.8 °F 100% 29.71 in 10.0 mi North 17.3 mph 23.0 mph N/A Rain Light Rain
1:35 AM 41.0 °F 33.1 °F 41.0 °F 100% 29.71 in 10.0 mi NNW 15.0 mph - N/A   Overcast
1:55 AM 41.0 °F 32.5 °F 41.0 °F 100% 29.71 in 10.0 mi North 17.3 mph 23.0 mph N/A   Overcast
2:15 AM 41.0 °F 31.6 °F 41.0 °F 100% 29.71 in 10.0 mi North 20.7 mph - N/A   Overcast
2:35 AM 41.0 °F 31.9 °F 41.0 °F 100% 29.71 in 10.0 mi North 19.6 mph 25.3 mph N/A   Overcast
2:55 AM 41.0 °F 32.5 °F 41.0 °F 100% 29.71 in 10.0 mi NNW 17.3 mph 23.0 mph N/A   Overcast
3:15 AM 41.0 °F 32.5 °F 41.0 °F 100% 29.70 in 10.0 mi NNW 17.3 mph 21.9 mph N/A   Overcast
3:35 AM 41.0 °F 32.5 °F 41.0 °F 100% 29.70 in 10.0 mi NNW 17.3 mph 23.0 mph N/A   Overcast
3:55 AM 41.0 °F 32.2 °F 41.0 °F 100% 29.70 in 10.0 mi NNW 18.4 mph 24.2 mph N/A   Overcast
4:15 AM 41.0 °F 33.1 °F 41.0 °F 100% 29.70 in 10.0 mi NNW 15.0 mph 20.7 mph N/A   Overcast
4:35 AM 41.0 °F 32.8 °F 41.0 °F 100% 29.70 in 10.0 mi NW 16.1 mph 21.9 mph N/A   Overcast
4:55 AM 41.0 °F 33.1 °F 41.0 °F 100% 29.69 in 10.0 mi NW 15.0 mph - N/A   Overcast
5:15 AM 41.0 °F 33.9 °F 41.0 °F 100% 29.70 in 10.0 mi NW 12.7 mph 19.6 mph N/A   Overcast
5:35 AM 41.0 °F 33.5 °F 41.0 °F 100% 29.70 in 10.0 mi NW 13.8 mph - N/A   Overcast
5:55 AM 39.2 °F 31.2 °F 39.2 °F 100% 29.70 in 10.0 mi NW 13.8 mph - N/A   Overcast
6:15 AM 37.4 °F 28.9 °F 37.4 °F 100% 29.71 in 10.0 mi NW 13.8 mph - N/A   Scattered Clouds
6:35 AM 37.4 °F 28.9 °F 37.4 °F 100% 29.71 in 10.0 mi NW 13.8 mph - N/A   Scattered Clouds
6:55 AM 37.4 °F 29.8 °F 37.4 °F 100% 29.71 in 10.0 mi NW 11.5 mph - N/A   Scattered Clouds
7:15 AM 37.4 °F 29.3 °F 37.4 °F 100% 29.71 in 10.0 mi WNW 12.7 mph - N/A   Partly Cloudy
7:35 AM 39.2 °F 31.6 °F 39.2 °F 100% 29.72 in 10.0 mi NW 12.7 mph - N/A   Clear
7:55 AM 39.2 °F 31.6 °F 39.2 °F 100% 29.73 in 10.0 mi NW 12.7 mph - N/A   Clear
8:15 AM 41.0 °F 33.5 °F 39.2 °F 93% 29.73 in 10.0 mi NW 13.8 mph - N/A   Clear
8:35 AM 42.8 °F 35.4 °F 39.2 °F 87% 29.73 in 10.0 mi NNW 15.0 mph - N/A   Clear
8:55 AM 44.6 °F 38.4 °F 37.4 °F 76% 29.73 in 10.0 mi NW 12.7 mph 21.9 mph N/A   Clear
9:15 AM 46.4 °F 39.5 °F 37.4 °F 71% 29.73 in 10.0 mi NNW 17.3 mph - N/A   Clear
9:35 AM 46.4 °F 39.5 °F 32.0 °F 57% 29.73 in 10.0 mi NNW 17.3 mph 23.0 mph N/A   Clear
9:55 AM 48.2 °F - 33.8 °F 58% 29.73 in 10.0 mi NW 19.6 mph 24.2 mph N/A   Clear
10:15 AM 48.2 °F - 35.6 °F 62% 29.73 in 10.0 mi NNW 19.6 mph - N/A   Clear
10:35 AM 50.0 °F - 35.6 °F 58% 29.73 in 10.0 mi NNW 16.1 mph 24.2 mph N/A   Clear
10:55 AM 50.0 °F - 35.6 °F 58% 29.72 in 10.0 mi NNW 17.3 mph 24.2 mph N/A   Partly Cloudy
11:15 AM 50.0 °F - 35.6 °F 58% 29.72 in 10.0 mi NNW 16.1 mph 25.3 mph N/A   Partly Cloudy
11:35 AM 51.8 °F - 35.6 °F 54% 29.72 in 10.0 mi NNW 16.1 mph 24.2 mph N/A   Scattered Clouds
11:55 AM 51.8 °F - 35.6 °F 54% 29.72 in 10.0 mi NW 11.5 mph 23.0 mph N/A   Partly Cloudy
12:15 PM 51.8 °F - 35.6 °F 54% 29.72 in 10.0 mi NNW 19.6 mph 23.0 mph N/A   Mostly Cloudy
12:35 PM 53.6 °F - 35.6 °F 51% 29.72 in 10.0 mi NNW 13.8 mph 23.0 mph N/A   Mostly Cloudy
12:55 PM 53.6 °F - 35.6 °F 51% 29.72 in 10.0 mi NNW 15.0 mph 21.9 mph N/A   Mostly Cloudy
1:15 PM 53.6 °F - 32.0 °F 44% 29.72 in 10.0 mi WNW 13.8 mph 20.7 mph N/A   Scattered Clouds
1:35 PM 55.4 °F - 32.0 °F 41% 29.71 in 10.0 mi NNW 13.8 mph 23.0 mph N/A   Partly Cloudy
1:55 PM 55.4 °F - 30.2 °F 38% 29.71 in 10.0 mi NW 12.7 mph 20.7 mph N/A   Clear
2:15 PM 57.2 °F - 30.2 °F 36% 29.71 in 10.0 mi NW 13.8 mph 20.7 mph N/A   Clear
2:35 PM 57.2 °F - 26.6 °F 31% 29.71 in 10.0 mi NW 17.3 mph 24.2 mph N/A   Clear
2:55 PM 57.2 °F - 24.8 °F 29% 29.71 in 10.0 mi NW 12.7 mph 20.7 mph N/A   Clear
3:15 PM 57.2 °F - 23.0 °F 27% 29.72 in 10.0 mi NNW 15.0 mph 23.0 mph N/A   Clear
3:35 PM 57.2 °F - 24.8 °F 29% 29.72 in 10.0 mi NNW 9.2 mph 24.2 mph N/A   Clear
3:55 PM 57.2 °F - 24.8 °F 29% 29.71 in 10.0 mi NW 18.4 mph 23.0 mph N/A   Clear
4:15 PM 57.2 °F - 23.0 °F 27% 29.71 in 10.0 mi NW 13.8 mph 20.7 mph N/A   Clear
4:35 PM 57.2 °F - 23.0 °F 27% 29.71 in 10.0 mi NW 12.7 mph 23.0 mph N/A   Clear
4:55 PM 57.2 °F - 23.0 °F 27% 29.72 in 10.0 mi NW 17.3 mph 20.7 mph N/A   Clear
5:15 PM 59.0 °F - 23.0 °F 25% 29.72 in 10.0 mi WNW 12.7 mph 18.4 mph N/A   Clear
5:35 PM 59.0 °F - 23.0 °F 25% 29.72 in 10.0 mi NNW 10.4 mph 18.4 mph N/A   Clear
5:55 PM 59.0 °F - 24.8 °F 27% 29.72 in 10.0 mi NNW 13.8 mph - N/A   Clear
6:15 PM 57.2 °F - 23.0 °F 27% 29.72 in 10.0 mi NW 12.7 mph - N/A   Clear
6:55 PM 57.2 °F - 24.8 °F 29% 29.72 in 10.0 mi NW 8.1 mph - N/A   Clear
7:15 PM 57.2 °F - 24.8 °F 29% 29.72 in 10.0 mi NNW 8.1 mph - N/A   Clear
7:35 PM 57.2 °F - 24.8 °F 29% 29.72 in 10.0 mi NW 8.1 mph - N/A   Clear
7:55 PM 55.4 °F - 26.6 °F 33% 29.73 in 10.0 mi NW 8.1 mph - N/A   Clear
8:15 PM 53.6 °F - 26.6 °F 35% 29.73 in 10.0 mi WNW 4.6 mph - N/A   Clear
8:35 PM 53.6 °F - 26.6 °F 35% 29.73 in 10.0 mi WNW 3.5 mph - N/A   Clear
8:55 PM 50.0 °F - 24.8 °F 37% 29.74 in 10.0 mi WNW 3.5 mph - N/A   Clear
9:15 PM 46.4 °F 44.3 °F 28.4 °F 50% 29.74 in 10.0 mi WNW 4.6 mph - N/A   Clear
9:35 PM 44.6 °F 42.2 °F 30.2 °F 57% 29.75 in 10.0 mi West 4.6 mph - N/A   Clear
9:55 PM 41.0 °F 38.0 °F 32.0 °F 70% 29.76 in 10.0 mi WSW 4.6 mph - N/A   Clear
10:15 PM 44.6 °F - 32.0 °F 61% 29.76 in 10.0 mi Calm Calm - N/A   Clear
10:35 PM 42.8 °F 39.3 °F 30.2 °F 61% 29.77 in 10.0 mi SSW 5.8 mph - N/A   Clear
10:55 PM 44.6 °F 42.2 °F 28.4 °F 53% 29.77 in 10.0 mi South 4.6 mph - N/A   Clear
11:15 PM 41.0 °F 39.0 °F 30.2 °F 65% 29.77 in 10.0 mi SSW 3.5 mph - N/A   Clear
11:35 PM 41.0 °F 39.0 °F 30.2 °F 65% 29.77 in 10.0 mi SSW 3.5 mph - N/A   Clear
11:55 PM 39.2 °F 37.0 °F 30.2 °F 70% 29.77 in 10.0 mi SSW 3.5 mph - N/A   Clear